Simultaneous Nadir Overpasses (SNOs) Predictions

Prediction of SNOs between NOAA-19 and TERRA Satellite Orbit:

Table of predicted SNOs for the next 14.0 days since TLE Epoch: 4/2/2022
Index Date (NOAA-19) Time (NOAA-19) Lat,Lon (NOAA-19) SZA (NOAA-19 ) Date (TERRA) Time (TERRA) Lat,Lon (TERRA) SZA (TERRA ) Distance(km) Time Diff (sec)
1 04/03/2022 11:03:56 -80.71,-130.24 103.03 04/03/2022 11:04:07 -80.72,-130.11 103.00 3.02 11
2 04/05/2022 16:36:53 80.72, -33.79 76.12 04/05/2022 16:37:48 80.71, -33.67 76.15 2.26 55
3 04/05/2022 17:27:56 -80.70, 133.94 103.86 04/05/2022 17:27:15 -80.71, 133.93 103.87 0.65 41
4 04/07/2022 23:00:52 80.71,-129.43 75.32 04/07/2022 23:00:56 80.70,-129.61 75.29 3.32 4
5 04/10/2022 04:33:57 -80.71, -32.75 105.50 04/10/2022 04:34:37 -80.72, -32.81 105.49 1.28 40
6 04/10/2022 05:24:51 80.70, 134.88 74.52 04/10/2022 05:24:03 80.72, 134.83 74.50 2.25 48
7 04/12/2022 10:57:57 -80.72,-128.75 106.31 04/12/2022 10:57:45 -80.72,-128.65 106.31 1.77 12
8 04/14/2022 16:30:52 80.73, -32.17 72.89 04/14/2022 16:31:26 80.72, -32.11 72.90 1.52 34



Historial Predications of SNOs between NOAA-19 and TERRA
